DW7267 Weather Reports


time (UTC)temp
F
wind
direction
speed
knots
gust
knots
rain 1hr
in
rain 24hr
in
rain mn
in
humidity
%
barometer
mb
20260904062322 65 114 1.7 8.7 0.02 0.02 0.02 82 1020.3
20260904061822 66 133 1.7 8.7 0.02 0.02 0.02 78 1020.3
20260904061316 67 117 0.9 8.7 0.01 0.01 0.01 76 1020.4
20260904060816 67 213 0.0 5.2 0.00 0.00 0.00 73 1020.4
20260904060315 66 251 0.0 3.5 0.00 0.00 0.00 74 1020.2
20260904055816 64 259 0.0 3.5 0.00 0.00 0.00 77 1020.2
20260904055317 63 228 0.0 0.0 0.00 0.00 0.00 79 1020.0
20260904054818 62 228 0.0 0.0 0.00 0.00 0.00 81 1020.0
20260904054311 62 228 0.0 0.0 0.00 0.00 0.00 81 1020.0
20260904053810 61 228 0.0 0.0 0.00 0.00 0.00 81 1020.0
20260904053312 61 228 0.0 0.0 0.00 0.00 0.00 81 1020.0
20260904052812 61 228 0.0 0.0 0.00 0.00 0.00 82 1019.9
20260904052310 61 228 0.0 0.0 0.00 0.00 0.00 82 1019.9
20260904051809 60 228 0.0 0.0 0.00 0.00 0.00 82 1019.9
20260904051304 60 228 0.0 0.0 0.00 0.00 0.00 82 1019.9
20260904050802 60 228 0.0 0.0 0.00 0.00 0.00 81 1020.0
20260904050532 60 228 0.0 0.0 0.00 0.00 0.00 81 1019.9
20260904045758 60 228 0.0 0.0 0.00 0.00 0.00 81 1020.0
20260904045258 60 228 0.0 0.0 0.00 0.00 0.00 81 1020.0
20260904044752 60 228 0.0 0.0 0.00 0.00 0.00 81 1020.2
20260904044251 60 228 0.0 0.0 0.00 0.00 0.00 81 1020.2
20260904043748 60 228 0.0 0.0 0.00 0.00 0.00 80 1020.2
20260904043246 60 228 0.0 0.0 0.00 0.00 0.00 80 1020.2
20260904043018 60 228 0.0 0.0 0.00 0.00 0.00 80 1020.2
20260904042241 60 228 0.0 0.0 0.00 0.00 0.00 79 1020.2
20260904041738 61 228 0.0 0.0 0.00 0.00 0.00 78 1020.2
20260904041236 61 228 0.0 0.0 0.00 0.00 0.00 78 1020.2
20260904040734 61 228 0.0 0.0 0.00 0.00 0.00 78 1020.0
20260904040504 61 228 0.0 0.0 0.00 0.00 0.00 77 1020.0
20260904035230 62 228 0.0 0.0 0.00 0.00 0.00 76 1020.0
20260904034730 62 228 0.0 0.0 0.00 0.00 0.00 76 1020.0
20260904034501 62 228 0.0 0.0 0.00 0.00 0.00 75 1019.9
20260904033729 62 228 0.0 0.0 0.00 0.00 0.00 75 1019.8
20260904033228 62 228 0.0 0.0 0.00 0.00 0.00 74 1019.8
20260904032957 62 228 0.0 0.0 0.00 0.00 0.00 74 1019.8
20260904032222 63 228 0.0 0.0 0.00 0.00 0.00 73 1019.8
20260904031724 63 228 0.0 0.0 0.00 0.00 0.00 72 1019.7
20260904031224 63 228 0.0 0.0 0.00 0.00 0.00 71 1019.7
20260904030722 64 228 0.0 0.0 0.00 0.00 0.00 70 1019.7
20260904030224 64 228 0.0 0.0 0.00 0.00 0.00 69 1019.7
20260904025716 65 228 0.0 0.0 0.00 0.00 0.00 68 1019.7
20260904025214 65 228 0.0 0.0 0.00 0.00 0.00 67 1019.6
20260904024712 65 228 0.0 0.0 0.00 0.00 0.00 66 1019.6
20260904024210 66 228 0.0 0.0 0.00 0.00 0.00 64 1019.4
20260904023711 67 228 0.0 0.0 0.00 0.00 0.00 63 1019.4
20260904023204 67 228 0.0 0.0 0.00 0.00 0.00 62 1019.3
20260904022702 68 228 0.0 0.0 0.00 0.00 0.00 61 1019.2
20260904022200 68 228 0.0 0.0 0.00 0.00 0.00 60 1019.2
20260904021658 69 228 0.0 0.0 0.00 0.00 0.00 58 1019.2
20260904021200 69 228 0.0 0.0 0.00 0.00 0.00 57 1019.2
20260904020656 70 228 0.0 0.9 0.00 0.00 0.00 56 1019.1
20260904020155 71 228 0.0 0.9 0.00 0.00 0.00 55 1019.1
20260904015651 71 228 0.0 0.9 0.00 0.00 0.00 53 1019.1
20260904015153 72 228 0.0 1.7 0.00 0.00 0.00 52 1019.2
20260904014652 72 216 0.0 1.7 0.00 0.00 0.00 51 1019.1
20260904014152 73 215 0.0 1.7 0.00 0.00 0.00 50 1019.2
20260904013645 73 216 0.0 2.6 0.00 0.00 0.00 49 1019.1
20260904013144 74 268 0.0 2.6 0.00 0.00 0.00 49 1019.1
20260904012642 74 268 0.9 5.2 0.00 0.00 0.00 48 1019.2
20260904012140 75 149 0.9 5.2 0.00 0.00 0.00 47 1019.1
20260904011640 75 160 0.9 5.2 0.00 0.00 0.00 46 1019.2
20260904011133 76 150 0.9 5.2 0.00 0.00 0.00 46 1019.1
20260904010904 76 147 0.9 5.2 0.00 0.00 0.00 45 1019.1
20260904010135 77 244 0.9 5.2 0.00 0.00 0.00 44 1019.1
20260904005634 77 165 0.9 6.1 0.00 0.00 0.00 43 1019.1
20260904005134 77 256 0.9 6.1 0.00 0.00 0.00 42 1019.2
20260904004634 78 242 0.0 6.1 0.00 0.00 0.00 42 1019.2
20260904004403 77 241 0.9 6.1 0.00 0.00 0.00 43 1019.3
20260904003631 77 250 1.7 6.1 0.00 0.00 0.00 42 1019.3
20260904003130 78 261 1.7 6.1 0.00 0.00 0.00 44 1019.2
20260904002631 78 268 1.7 7.0 0.00 0.00 0.00 43 1019.2
20260904002128 78 157 1.7 7.0 0.00 0.00 0.00 42 1019.3
20260904001630 78 250 1.7 7.0 0.00 0.00 0.00 43 1019.2
20260904001122 77 266 2.6 7.0 0.00 0.00 0.00 43 1019.3
20260904000622 77 158 1.7 7.0 0.00 0.00 0.00 45 1019.3
20260904000122 77 264 2.6 7.0 0.00 0.00 0.00 45 1019.3
20260903235623 77 185 2.6 7.8 0.00 0.00 0.00 45 1019.3
20260903235354 78 244 2.6 7.8 0.00 0.00 0.00 45 1019.4
20260903234622 78 264 2.6 7.8 0.00 0.00 0.00 46 1019.4
20260903234117 77 150 1.7 7.8 0.00 0.00 0.00 47 1019.3
20260903233617 76 225 1.7 7.8 0.00 0.00 0.00 46 1019.3
20260903233116 76 250 0.9 5.2 0.00 0.00 0.00 48 1019.3
20260903232616 76 279 1.7 5.2 0.00 0.00 0.00 50 1019.4
20260903232117 76 243 1.7 5.2 0.00 0.00 0.00 49 1019.4
20260903231616 76 246 0.9 9.6 0.00 0.00 0.00 49 1019.4
20260903231111 76 161 0.0 9.6 0.00 0.00 0.00 51 1019.4
20260903230843 76 221 1.7 10.4 0.00 0.00 0.00 50 1019.7
20260903230343 76 188 2.6 10.4 0.00 0.00 0.00 49 1019.6
20260903225611 77 250 1.7 7.0 0.00 0.00 0.00 49 1019.7
20260903225109 78 261 1.7 7.0 0.00 0.00 0.00 48 1019.8
20260903224608 78 167 1.7 7.0 0.00 0.00 0.00 48 1019.8
20260903224101 77 280 1.7 7.0 0.00 0.00 0.00 48 1019.8
20260903223558 76 244 1.7 7.0 0.00 0.00 0.00 50 1019.8
20260903223059 76 173 1.7 5.2 0.00 0.00 0.00 52 1020.0
20260903222600 76 195 1.7 5.2 0.00 0.00 0.00 52 1019.9
20260903222059 76 243 1.7 8.7 0.00 0.00 0.00 50 1020.0
20260903221558 77 245 0.9 8.7 0.00 0.00 0.00 49 1020.0
20260903221051 78 238 1.7 9.6 0.00 0.00 0.00 47 1020.2
20260903220552 78 233 1.7 9.6 0.00 0.00 0.00 46 1020.0
20260903220053 78 279 1.7 9.6 0.00 0.00 0.00 48 1020.2
20260903215552 78 154 2.6 9.6 0.00 0.00 0.00 45 1020.2
20260903215052 78 129 2.6 9.6 0.00 0.00 0.00 44 1020.2
20260903214825 78 265 3.5 9.6 0.00 0.00 0.00 46 1020.3
20260903214046 78 275 3.5 9.6 0.00 0.00 0.00 45 1020.4
20260903213546 78 191 2.6 7.0 0.00 0.00 0.00 47 1020.4
20260903213318 78 235 2.6 7.0 0.00 0.00 0.00 46 1020.5
20260903212817 78 251 2.6 7.8 0.00 0.00 0.00 46 1020.5
20260903212047 78 145 1.7 7.8 0.00 0.00 0.00 45 1020.5
20260903211546 78 155 0.9 5.2 0.00 0.00 0.00 49 1020.5
20260903211313 77 300 1.7 9.6 0.00 0.00 0.00 48 1020.5
20260903210542 78 275 2.6 9.6 0.00 0.00 0.00 48 1020.7
20260903210043 78 250 2.6 10.4 0.00 0.00 0.00 47 1020.7
20260903205540 77 281 2.6 10.4 0.00 0.00 0.00 49 1020.7
20260903205040 77 264 1.7 7.8 0.00 0.00 0.00 50 1020.6
20260903204540 77 169 1.7 8.7 0.00 0.00 0.00 49 1020.7
20260903204034 77 167 1.7 8.7 0.00 0.00 0.00 48 1021.0
20260903203534 77 210 0.9 6.1 0.00 0.00 0.00 50 1021.0
20260903203035 77 247 0.9 7.0 0.00 0.00 0.00 47 1021.0
20260903202534 77 214 1.7 7.8 0.00 0.00 0.00 49 1021.0
20260903202034 77 233 2.6 7.8 0.00 0.00 0.00 48 1021.1
20260903201535 78 257 2.6 8.7 0.00 0.00 0.00 45 1021.0
20260903201029 78 128 2.6 8.7 0.00 0.00 0.00 45 1021.1
20260903200530 78 244 2.6 8.7 0.00 0.00 0.00 47 1021.1
20260903200028 78 168 2.6 10.4 0.00 0.00 0.00 45 1021.2
20260903195759 78 261 2.6 10.4 0.00 0.00 0.00 46 1021.2
20260903195028 78 261 2.6 10.4 0.00 0.00 0.00 46 1021.2
20260903194528 78 216 2.6 10.4 0.00 0.00 0.00 49 1021.5
20260903194021 78 179 1.7 8.7 0.00 0.00 0.00 48 1021.3
20260903193523 77 142 1.7 8.7 0.00 0.00 0.00 49 1021.3
20260903193024 77 150 2.6 11.3 0.00 0.00 0.00 49 1021.5
20260903192523 77 268 2.6 11.3 0.00 0.00 0.00 49 1021.6
20260903192023 76 188 1.7 10.4 0.00 0.00 0.00 53 1021.6
20260903191522 75 255 1.7 7.0 0.00 0.00 0.00 53 1021.7
20260903191015 75 234 1.7 7.0 0.00 0.00 0.00 53 1021.8
20260903190517 75 247 1.7 7.0 0.00 0.00 0.00 52 1021.8
20260903190017 75 170 1.7 7.0 0.00 0.00 0.00 53 1021.9
20260903185747 75 55 1.7 7.8 0.00 0.00 0.00 54 1021.9
20260903185016 75 157 1.7 7.8 0.00 0.00 0.00 56 1022.0
20260903184518 74 169 2.6 9.6 0.00 0.00 0.00 55 1022.0
20260903184014 74 203 2.6 9.6 0.00 0.00 0.00 57 1022.2
20260903183511 74 257 2.6 9.6 0.00 0.00 0.00 55 1022.2
20260903183011 75 265 2.6 9.6 0.00 0.00 0.00 55 1022.3
20260903182510 76 244 2.6 7.8 0.00 0.00 0.00 54 1022.3
20260903182010 75 157 1.7 7.8 0.00 0.00 0.00 54 1022.3
20260903181510 76 162 2.6 9.6 0.00 0.00 0.00 53 1022.4
20260903181005 75 209 2.6 9.6 0.00 0.00 0.00 52 1022.5
20260903180735 75 262 1.7 10.4 0.00 0.00 0.00 54 1022.5
20260903180237 75 147 2.6 10.4 0.00 0.00 0.00 54 1022.6
20260903175504 75 156 2.6 8.7 0.00 0.00 0.00 53 1022.6
20260903175235 75 226 2.6 7.8 0.00 0.00 0.00 52 1022.8
20260903174504 75 154 2.6 7.0 0.00 0.00 0.00 54 1022.5
20260903173958 75 248 1.7 7.0 0.00 0.00 0.00 52 1022.6
20260903173456 75 168 2.6 7.8 0.00 0.00 0.00 53 1022.6
20260903172955 75 231 2.6 7.8 0.00 0.00 0.00 55 1022.5
20260903172724 76 86 1.7 8.7 0.00 0.00 0.00 55 1022.6
20260903171952 75 164 0.9 8.7 0.00 0.00 0.00 56 1022.6
20260903171450 75 216 1.7 6.1 0.00 0.00 0.00 55 1022.6
20260903170948 75 227 2.6 7.8 0.00 0.00 0.00 53 1022.5
20260903170446 74 250 2.6 7.8 0.00 0.00 0.00 57 1022.5
20260903165946 74 160 2.6 7.8 0.00 0.00 0.00 59 1022.5
20260903165447 74 163 2.6 8.7 0.00 0.00 0.00 58 1022.6
20260903164948 74 149 1.7 8.7 0.00 0.00 0.00 59 1022.5
20260903164440 74 164 1.7 8.7 0.00 0.00 0.00 58 1022.4
20260903163939 74 214 2.6 8.7 0.00 0.00 0.00 59 1022.5
20260903163440 74 303 2.6 7.8 0.00 0.00 0.00 61 1022.5
20260903162940 73 222 1.7 7.8 0.00 0.00 0.00 60 1022.4
20260903162441 74 261 1.7 7.8 0.00 0.00 0.00 61 1022.4
20260903161940 73 250 2.6 7.0 0.00 0.00 0.00 61 1022.4
20260903161434 73 232 2.6 7.0 0.00 0.00 0.00 60 1022.5
20260903160935 73 141 1.7 7.0 0.00 0.00 0.00 60 1022.4
20260903160435 73 237 1.7 7.0 0.00 0.00 0.00 61 1022.4
20260903155934 73 230 1.7 7.0 0.00 0.00 0.00 60 1022.5
20260903155434 73 131 1.7 7.0 0.00 0.00 0.00 58 1022.5
20260903154934 73 246 1.7 7.0 0.00 0.00 0.00 58 1022.6
20260903154427 74 251 0.9 7.0 0.00 0.00 0.00 58 1022.6
20260903153929 74 255 0.9 6.1 0.00 0.00 0.00 55 1022.5
20260903153429 73 209 2.6 6.1 0.00 0.00 0.00 53 1022.5
20260903152929 73 138 1.7 6.1 0.00 0.00 0.00 52 1022.5
20260903152659 73 171 0.9 5.2 0.00 0.00 0.00 51 1022.5
20260903151929 73 207 0.9 4.3 0.00 0.00 0.00 49 1022.5
20260903151425 73 205 1.7 4.3 0.00 0.00 0.00 47 1022.5
20260903150925 73 150 1.7 4.3 0.00 0.00 0.00 48 1022.5
20260903150422 73 138 0.9 4.3 0.00 0.00 0.00 46 1022.5
20260903145654 73 233 0.9 4.3 0.00 0.00 0.00 48 1022.5
20260903144922 73 112 0.0 3.5 0.00 0.00 0.00 47 1022.4
20260903144655 72 155 0.0 2.6 0.00 0.00 0.00 49 1022.4
20260903143919 72 156 0.0 2.6 0.00 0.00 0.00 49 1022.4
20260903143421 71 143 0.0 1.7 0.00 0.00 0.00 54 1022.3
20260903142918 69 143 0.0 1.7 0.00 0.00 0.00 61 1022.4
20260903141916 66 100 0.0 0.0 0.00 0.00 0.00 70 1022.3
20260903141414 65 100 0.0 0.0 0.00 0.00 0.00 70 1022.3
20260903140914 64 100 0.0 0.0 0.00 0.00 0.00 73 1022.3
20260903140414 62 99 0.0 0.0 0.00 0.00 0.00 74 1022.3
20260903135913 61 100 0.0 0.0 0.00 0.00 0.00 76 1022.4
20260903135641 60 100 0.0 0.0 0.00 0.00 0.00 77 1022.3
20260903134912 59 100 0.0 0.0 0.00 0.00 0.00 79 1022.3
20260903134404 58 99 0.0 0.0 0.00 0.00 0.00 82 1022.2
20260903133902 57 100 0.0 0.0 0.00 0.00 0.00 86 1022.2
20260903133400 55 100 0.0 0.0 0.00 0.00 0.00 89 1022.0
20260903132859 54 100 0.0 0.0 0.00 0.00 0.00 89 1021.9
20260903132400 54 99 0.0 0.0 0.00 0.00 0.00 88 1021.8
20260903131852 53 100 0.0 0.0 0.00 0.00 0.00 88 1021.8
20260903131351 53 99 0.0 0.0 0.00 0.00 0.00 89 1021.8
20260903130851 53 100 0.0 0.0 0.00 0.00 0.00 89 1021.8
20260903130349 53 100 0.0 0.0 0.00 0.00 0.00 89 1021.7
20260903125851 53 99 0.0 0.0 0.00 0.00 0.00 89 1021.7
20260903125351 53 100 0.0 0.0 0.00 0.00 0.00 89 1021.7
20260903124843 53 99 0.0 0.0 0.00 0.00 0.00 89 1021.7
20260903124341 53 100 0.0 0.0 0.00 0.00 0.00 90 1021.6
20260903123841 53 99 0.0 0.0 0.00 0.00 0.00 89 1021.6
20260903123338 53 100 0.0 0.0 0.00 0.00 0.00 89 1021.6
20260903122839 53 99 0.0 0.0 0.00 0.00 0.00 89 1021.5
20260903121832 53 100 0.0 0.0 0.00 0.00 0.00 88 1021.5
20260903121331 54 100 0.0 0.0 0.00 0.00 0.00 88 1021.5
20260903121100 54 100 0.0 0.9 0.00 0.00 0.00 88 1021.3
20260903120328 54 100 0.0 0.9 0.00 0.00 0.00 88 1021.5
20260903115830 54 100 0.0 0.0 0.00 0.00 0.00 87 1021.5
20260903115322 54 100 0.0 0.0 0.00 0.00 0.00 88 1021.5
20260903115053 54 100 0.0 0.0 0.00 0.00 0.00 88 1021.5
20260903114318 54 100 0.0 0.0 0.00 0.00 0.00 88 1021.3
20260903113816 55 99 0.0 0.0 0.00 0.00 0.00 88 1021.3
20260903113317 55 100 0.0 0.9 0.00 0.00 0.00 88 1021.3
20260903112307 55 100 0.0 0.9 0.00 0.00 0.00 88 1021.3
20260903111807 55 100 0.0 0.9 0.00 0.00 0.00 88 1021.3
20260903111536 55 99 0.0 0.0 0.00 0.00 0.00 87 1021.3
20260903110805 55 100 0.0 0.0 0.00 0.00 0.00 87 1021.2
20260903110301 55 99 0.0 0.0 0.00 0.00 0.00 87 1021.2
20260903105802 55 100 0.0 0.0 0.00 0.00 0.00 87 1021.2
20260903105301 55 100 0.0 0.0 0.00 0.00 0.00 87 1021.3
20260903104801 56 100 0.0 0.0 0.00 0.00 0.00 86 1021.3
20260903103758 56 100 0.0 0.0 0.00 0.00 0.00 85 1021.3
20260903103257 56 100 0.0 0.0 0.00 0.00 0.00 84 1021.3
20260903102253 57 100 0.0 1.7 0.00 0.00 0.00 83 1021.5
20260903101753 57 100 0.0 1.7 0.00 0.00 0.00 83 1021.5
20260903101523 57 100 0.0 1.7 0.00 0.00 0.00 83 1021.6
20260903100753 57 100 0.0 1.7 0.00 0.00 0.00 83 1021.7
20260903100250 57 100 0.0 1.7 0.00 0.00 0.00 84 1021.7
20260903095751 57 99 0.0 1.7 0.00 0.00 0.00 84 1021.7
20260903095251 57 98 0.0 0.9 0.00 0.00 0.00 85 1021.7
20260903094748 56 98 0.0 0.9 0.00 0.00 0.00 85 1021.7
20260903094247 56 98 0.0 1.7 0.00 0.00 0.00 85 1021.7
20260903093747 56 98 0.0 1.7 0.00 0.00 0.00 86 1021.6
20260903093243 56 98 0.0 2.6 0.00 0.00 0.00 86 1021.6
20260903093012 56 98 0.0 2.6 0.00 0.00 0.00 87 1021.7
20260903092240 55 114 0.0 1.7 0.00 0.00 0.00 87 1021.7
20260903092011 55 113 0.0 1.7 0.00 0.00 0.00 86 1021.7
20260903091241 55 113 0.0 1.7 0.00 0.00 0.00 86 1021.7
20260903090740 56 113 0.0 0.9 0.00 0.00 0.00 85 1021.7
20260903090507 56 114 0.0 0.9 0.00 0.00 0.00 85 1021.7
20260903085736 56 114 0.0 0.9 0.00 0.00 0.00 85 1021.7
20260903085236 56 105 0.0 0.9 0.00 0.00 0.00 84 1021.7
20260903084737 57 105 0.0 0.9 0.00 0.00 0.00 84 1021.7
20260903084235 57 105 0.0 0.9 0.00 0.00 0.00 84 1021.7
20260903083734 57 105 0.0 0.9 0.00 0.00 0.00 84 1021.7
20260903082730 57 105 0.0 2.6 0.00 0.00 0.00 84 1021.8
20260903082228 57 105 0.0 2.6 0.00 0.00 0.00 84 1021.8
20260903081728 57 105 0.0 2.6 0.00 0.00 0.00 84 1021.8
20260903081228 57 105 0.0 0.9 0.00 0.00 0.00 84 1021.8
20260903080729 57 105 0.0 0.9 0.00 0.00 0.00 84 1021.9
20260903080222 57 105 0.0 2.6 0.00 0.00 0.00 85 1021.9
20260903075721 57 105 0.0 2.6 0.00 0.00 0.00 85 1021.9
20260903075218 57 105 0.9 2.6 0.00 0.00 0.00 85 1022.0
20260903074717 57 105 0.0 2.6 0.00 0.00 0.00 85 1022.0
20260903074218 57 86 0.0 1.7 0.00 0.00 0.00 85 1022.0
20260903073715 57 85 0.0 2.6 0.00 0.00 0.00 85 1022.0
20260903073445 57 103 0.0 2.6 0.00 0.00 0.00 84 1022.0
20260903072713 57 110 0.0 2.6 0.00 0.00 0.00 83 1022.0
20260903072213 58 110 0.9 2.6 0.00 0.00 0.00 83 1022.0
20260903071210 57 86 0.0 2.6 0.00 0.00 0.00 84 1022.0
20260903070709 57 83 0.0 3.5 0.00 0.00 0.00 86 1022.0
20260903070207 56 83 0.0 3.5 0.00 0.00 0.00 87 1022.0
20260903065205 56 106 0.0 0.9 0.00 0.00 0.00 88 1021.9
20260903064705 56 107 0.0 0.9 0.00 0.00 0.00 88 1021.9
20260903064204 56 107 0.0 0.9 0.00 0.00 0.00 88 1022.0
20260903063659 56 107 0.0 0.9 0.00 0.00 0.00 88 1021.9
20260903063155 56 108 0.0 0.9 0.00 0.00 0.00 88 1022.0
20260903062925 56 107 0.0 0.0 0.00 0.00 0.00 88 1022.0